Time,TemperatureF,DewpointF,PressureIn,WindDirection,WindDirectionDegrees,WindSpeedMPH,WindSpeedGustMPH,Humidity,HourlyPrecipIn,Conditions,Clouds,dailyrainin,SoftwareType,DateUTC
2013-02-07 00:00:00,23.9,16.2,30.24,SSE,156,1.0,2.0,72,0.00,,,0.00,WeatherCatV1.10B1784,2013-02-07 05:00:00,
2013-02-07 00:05:00,24.0,16.6,30.25,South,170,0.0,1.0,73,0.00,,,0.00,WeatherCatV1.10B1784,2013-02-07 05:05:00,
2013-02-07 00:10:00,24.1,16.7,30.25,South,170,2.0,2.0,73,0.00,,,0.00,WeatherCatV1.10B1784,2013-02-07 05:10:00,
2013-02-07 00:15:00,24.2,16.8,30.25,South,170,0.0,1.0,73,0.00,,,0.00,WeatherCatV1.10B1784,2013-02-07 05:15:00,
2013-02-07 00:20:00,24.2,16.8,30.25,South,170,0.0,2.0,73,0.00,,,0.00,WeatherCatV1.10B1784,2013-02-07 05:20:00,
2013-02-07 00:25:00,24.2,16.8,30.25,South,170,2.0,2.0,73,0.00,,,0.00,WeatherCatV1.10B1784,2013-02-07 05:25:00,
2013-02-07 00:30:00,24.2,16.8,30.25,SSE,150,2.0,2.0,73,0.00,,,0.00,WeatherCatV1.10B1784,2013-02-07 05:30:00,
2013-02-07 00:35:00,24.2,16.8,30.25,SSE,150,1.0,2.0,73,0.00,,,0.00,WeatherCatV1.10B1784,2013-02-07 05:35:00,
2013-02-07 00:40:00,24.2,17.1,30.24,SSE,150,1.0,2.0,74,0.00,,,0.00,WeatherCatV1.10B1784,2013-02-07 05:40:00,
2013-02-07 00:45:00,24.1,16.7,30.24,SSE,148,0.0,2.0,73,0.00,,,0.00,WeatherCatV1.10B1784,2013-02-07 05:45:00,
2013-02-07 00:50:00,24.1,16.7,30.24,SE,138,2.0,3.0,73,0.00,,,0.00,WeatherCatV1.10B1784,2013-02-07 05:50:00,
2013-02-07 00:55:00,24.1,16.7,30.25,SE,133,1.0,2.0,73,0.00,,,0.00,WeatherCatV1.10B1784,2013-02-07 05:55:00,
2013-02-07 01:00:00,24.1,16.7,30.24,SE,129,2.0,3.0,73,0.00,,,0.00,WeatherCatV1.10B1784,2013-02-07 06:00:00,
2013-02-07 01:05:00,24.1,16.7,30.24,SE,128,1.0,2.0,73,0.00,,,0.00,WeatherCatV1.10B1784,2013-02-07 06:05:00,
2013-02-07 01:10:00,24.1,17.0,30.24,ESE,123,2.0,3.0,74,0.00,,,0.00,WeatherCatV1.10B1784,2013-02-07 06:10:00,
2013-02-07 01:15:00,24.1,17.0,30.24,ESE,123,1.0,2.0,74,0.00,,,0.00,WeatherCatV1.10B1784,2013-02-07 06:15:00,
2013-02-07 01:20:00,24.1,17.0,30.24,ESE,123,1.0,2.0,74,0.00,,,0.00,WeatherCatV1.10B1784,2013-02-07 06:20:00,
2013-02-07 01:25:00,24.1,17.0,30.24,ESE,116,2.0,5.0,74,0.00,,,0.00,WeatherCatV1.10B1784,2013-02-07 06:25:00,
2013-02-07 01:30:00,24.1,17.0,30.24,ESE,114,2.0,3.0,74,0.00,,,0.00,WeatherCatV1.10B1784,2013-02-07 06:30:00,
2013-02-07 01:35:00,24.2,17.1,30.24,ESE,109,2.0,3.0,74,0.00,,,0.00,WeatherCatV1.10B1784,2013-02-07 06:35:00,
2013-02-07 01:40:00,24.1,17.0,30.24,SE,132,2.0,3.0,74,0.00,,,0.00,WeatherCatV1.10B1784,2013-02-07 06:40:00,
2013-02-07 01:45:00,24.1,17.0,30.24,SE,140,4.0,4.0,74,0.00,,,0.00,WeatherCatV1.10B1784,2013-02-07 06:45:00,
2013-02-07 01:50:00,24.0,16.9,30.24,ESE,117,1.0,4.0,74,0.00,,,0.00,WeatherCatV1.10B1784,2013-02-07 06:50:00,
2013-02-07 01:53:00,24.0,17.2,30.24,ESE,113,3.0,4.0,75,0.00,,,0.00,WeatherCatV1.10B1784,2013-02-07 06:53:00,
2013-02-07 01:58:00,24.0,17.2,30.24,SE,126,3.0,3.0,75,0.00,,,0.00,WeatherCatV1.10B1784,2013-02-07 06:58:00,
2013-02-07 02:03:00,23.9,17.2,30.24,ESE,107,3.0,4.0,75,0.00,,,0.00,WeatherCatV1.10B1784,2013-02-07 07:03:00,
2013-02-07 02:08:00,23.9,17.2,30.24,SE,134,3.0,4.0,75,0.00,,,0.00,WeatherCatV1.10B1784,2013-02-07 07:08:00,
2013-02-07 02:13:00,23.9,17.5,30.23,ESE,109,3.0,6.0,76,0.00,,,0.00,WeatherCatV1.10B1784,2013-02-07 07:13:00,
2013-02-07 02:18:00,23.8,17.4,30.23,ESE,115,3.0,5.0,76,0.00,,,0.00,WeatherCatV1.10B1784,2013-02-07 07:18:00,
2013-02-07 02:23:00,23.8,17.4,30.23,SE,135,4.0,4.0,76,0.00,,,0.00,WeatherCatV1.10B1784,2013-02-07 07:23:00,
2013-02-07 02:28:00,23.7,17.6,30.23,ESE,116,3.0,7.0,77,0.00,,,0.00,WeatherCatV1.10B1784,2013-02-07 07:28:00,
2013-02-07 02:33:00,23.7,17.6,30.23,SSE,154,3.0,7.0,77,0.00,,,0.00,WeatherCatV1.10B1784,2013-02-07 07:33:00,
2013-02-07 02:38:00,23.7,17.6,30.23,SE,139,3.0,4.0,77,0.00,,,0.00,WeatherCatV1.10B1784,2013-02-07 07:38:00,
2013-02-07 02:43:00,23.6,17.5,30.23,SE,136,4.0,6.0,77,0.00,,,0.00,WeatherCatV1.10B1784,2013-02-07 07:43:00,
2013-02-07 02:48:00,23.6,17.8,30.22,SSE,163,2.0,7.0,78,0.00,,,0.00,WeatherCatV1.10B1784,2013-02-07 07:48:00,
2013-02-07 02:53:00,23.6,17.8,30.23,South,186,3.0,7.0,78,0.00,,,0.00,WeatherCatV1.10B1784,2013-02-07 07:53:00,
2013-02-07 02:58:00,23.7,17.9,30.23,SSE,165,3.0,6.0,78,0.00,,,0.00,WeatherCatV1.10B1784,2013-02-07 07:58:00,
2013-02-07 03:03:00,23.8,18.0,30.23,SE,134,4.0,7.0,78,0.00,,,0.00,WeatherCatV1.10B1784,2013-02-07 08:03:00,
2013-02-07 03:08:00,23.8,18.0,30.23,SE,144,5.0,5.0,78,0.00,,,0.00,WeatherCatV1.10B1784,2013-02-07 08:08:00,
2013-02-07 03:13:00,23.9,18.1,30.23,SE,138,1.0,5.0,78,0.00,,,0.00,WeatherCatV1.10B1784,2013-02-07 08:13:00,
2013-02-07 03:18:00,23.9,18.1,30.23,SSE,156,6.0,6.0,78,0.00,,,0.00,WeatherCatV1.10B1784,2013-02-07 08:18:00,
2013-02-07 03:23:00,24.0,18.5,30.23,SE,143,4.0,4.0,79,0.00,,,0.00,WeatherCatV1.10B1784,2013-02-07 08:23:00,
2013-02-07 03:28:00,24.0,18.5,30.22,SE,124,4.0,5.0,79,0.00,,,0.00,WeatherCatV1.10B1784,2013-02-07 08:28:00,
2013-02-07 03:33:00,24.0,18.5,30.22,ESE,119,1.0,4.0,79,0.00,,,0.00,WeatherCatV1.10B1784,2013-02-07 08:33:00,
2013-02-07 03:38:00,24.1,18.5,30.23,East,83,1.0,2.0,79,0.00,,,0.00,WeatherCatV1.10B1784,2013-02-07 08:38:00,
2013-02-07 03:43:00,24.1,18.5,30.23,East,90,3.0,3.0,79,0.00,,,0.00,WeatherCatV1.10B1784,2013-02-07 08:43:00,
2013-02-07 03:48:00,24.2,18.6,30.23,East,95,1.0,5.0,79,0.00,,,0.00,WeatherCatV1.10B1784,2013-02-07 08:48:00,
2013-02-07 03:53:00,24.2,18.6,30.22,ESE,105,3.0,3.0,79,0.00,,,0.00,WeatherCatV1.10B1784,2013-02-07 08:53:00,
2013-02-07 03:58:00,24.2,18.6,30.22,East,88,1.0,5.0,79,0.00,,,0.00,WeatherCatV1.10B1784,2013-02-07 08:58:00,
2013-02-07 04:03:00,24.3,18.7,30.21,ESE,113,2.0,5.0,79,0.00,,,0.00,WeatherCatV1.10B1784,2013-02-07 09:03:00,
2013-02-07 04:08:00,24.3,19.0,30.20,ESE,123,3.0,5.0,80,0.00,,,0.00,WeatherCatV1.10B1784,2013-02-07 09:08:00,
2013-02-07 04:13:00,24.3,19.0,30.20,East,98,5.0,7.0,80,0.00,,,0.00,WeatherCatV1.10B1784,2013-02-07 09:13:00,
2013-02-07 04:18:00,24.4,19.4,30.20,East,92,5.0,7.0,81,0.00,,,0.00,WeatherCatV1.10B1784,2013-02-07 09:18:00,
2013-02-07 04:23:00,24.4,19.7,30.20,ESE,103,4.0,7.0,82,0.00,,,0.00,WeatherCatV1.10B1784,2013-02-07 09:23:00,
2013-02-07 04:28:00,24.4,20.0,30.20,East,101,7.0,8.0,83,0.00,,,0.00,WeatherCatV1.10B1784,2013-02-07 09:28:00,
2013-02-07 04:33:00,24.4,20.3,30.20,East,99,6.0,7.0,84,0.00,,,0.00,WeatherCatV1.10B1784,2013-02-07 09:33:00,
2013-02-07 04:38:00,24.5,20.4,30.20,ESE,109,7.0,7.0,84,0.00,,,0.00,WeatherCatV1.10B1784,2013-02-07 09:38:00,
2013-02-07 04:43:00,24.5,20.4,30.20,East,92,5.0,7.0,84,0.00,,,0.00,WeatherCatV1.10B1784,2013-02-07 09:43:00,
2013-02-07 04:48:00,24.5,20.6,30.21,SE,134,2.0,5.0,85,0.00,,,0.00,WeatherCatV1.10B1784,2013-02-07 09:48:00,
2013-02-07 04:53:00,24.5,20.6,30.21,ESE,114,1.0,3.0,85,0.00,,,0.00,WeatherCatV1.10B1784,2013-02-07 09:53:00,
2013-02-07 04:58:00,24.5,20.6,30.22,ESE,110,2.0,3.0,85,0.00,,,0.00,WeatherCatV1.10B1784,2013-02-07 09:58:00,
2013-02-07 05:03:00,24.5,20.6,30.22,ESE,111,2.0,3.0,85,0.00,,,0.00,WeatherCatV1.10B1784,2013-02-07 10:03:00,
2013-02-07 05:08:00,24.5,20.6,30.21,ESE,109,2.0,3.0,85,0.00,,,0.00,WeatherCatV1.10B1784,2013-02-07 10:08:00,
2013-02-07 05:13:00,24.5,20.9,30.21,ESE,109,1.0,5.0,86,0.00,,,0.00,WeatherCatV1.10B1784,2013-02-07 10:13:00,
2013-02-07 05:18:00,24.5,20.9,30.21,ESE,103,4.0,6.0,86,0.00,,,0.00,WeatherCatV1.10B1784,2013-02-07 10:18:00,
2013-02-07 05:23:00,24.4,20.8,30.21,ESE,103,3.0,7.0,86,0.00,,,0.00,WeatherCatV1.10B1784,2013-02-07 10:23:00,
2013-02-07 05:28:00,24.4,21.1,30.21,East,100,2.0,5.0,87,0.00,,,0.00,WeatherCatV1.10B1784,2013-02-07 10:28:00,
2013-02-07 05:33:00,24.4,21.1,30.21,ESE,118,4.0,7.0,87,0.00,,,0.00,WeatherCatV1.10B1784,2013-02-07 10:33:00,
2013-02-07 05:38:00,24.4,21.1,30.21,SE,131,4.0,7.0,87,0.00,,,0.00,WeatherCatV1.10B1784,2013-02-07 10:38:00,
2013-02-07 05:43:00,24.4,21.1,30.20,SE,125,4.0,7.0,87,0.00,,,0.00,WeatherCatV1.10B1784,2013-02-07 10:43:00,
2013-02-07 05:48:00,24.4,21.1,30.21,ESE,111,3.0,5.0,87,0.00,,,0.00,WeatherCatV1.10B1784,2013-02-07 10:48:00,
2013-02-07 05:53:00,24.4,21.1,30.20,ESE,109,2.0,6.0,87,0.00,,,0.00,WeatherCatV1.10B1784,2013-02-07 10:53:00,
2013-02-07 05:58:00,24.4,21.1,30.20,ESE,111,2.0,5.0,87,0.00,,,0.00,WeatherCatV1.10B1784,2013-02-07 10:58:00,
2013-02-07 06:03:00,24.4,21.1,30.20,ESE,123,3.0,5.0,87,0.00,,,0.00,WeatherCatV1.10B1784,2013-02-07 11:03:00,
2013-02-07 06:08:00,24.4,21.1,30.20,ESE,109,4.0,7.0,87,0.00,,,0.00,WeatherCatV1.10B1784,2013-02-07 11:08:00,
2013-02-07 06:13:00,24.4,21.1,30.20,SE,134,3.0,5.0,87,0.00,,,0.00,WeatherCatV1.10B1784,2013-02-07 11:13:00,
2013-02-07 06:18:00,24.4,21.1,30.20,ESE,121,1.0,5.0,87,0.00,,,0.00,WeatherCatV1.10B1784,2013-02-07 11:18:00,
2013-02-07 06:23:00,24.5,21.2,30.20,SE,127,4.0,5.0,87,0.00,,,0.00,WeatherCatV1.10B1784,2013-02-07 11:23:00,
2013-02-07 06:28:00,24.5,20.9,30.20,SE,128,3.0,7.0,86,0.00,,,0.00,WeatherCatV1.10B1784,2013-02-07 11:28:00,
2013-02-07 06:33:00,24.6,21.0,30.20,SE,142,4.0,5.0,86,0.00,,,0.00,WeatherCatV1.10B1784,2013-02-07 11:33:00,
2013-02-07 06:38:00,24.7,20.8,30.19,SE,137,3.0,6.0,85,0.00,,,0.00,WeatherCatV1.10B1784,2013-02-07 11:38:00,
2013-02-07 06:43:00,24.8,20.9,30.19,SSE,153,4.0,7.0,85,0.00,,,0.00,WeatherCatV1.10B1784,2013-02-07 11:43:00,
2013-02-07 06:48:00,24.9,21.0,30.19,ESE,123,5.0,7.0,85,0.00,,,0.00,WeatherCatV1.10B1784,2013-02-07 11:48:00,
2013-02-07 06:53:00,25.0,20.9,30.19,SE,126,5.0,7.0,84,0.00,,,0.00,WeatherCatV1.10B1784,2013-02-07 11:53:00,
2013-02-07 06:58:00,25.2,21.1,30.19,SE,140,2.0,4.0,84,0.00,,,0.00,WeatherCatV1.10B1784,2013-02-07 11:58:00,
2013-02-07 07:03:00,25.3,20.9,30.18,SE,128,6.0,7.0,83,0.00,,,0.00,WeatherCatV1.10B1784,2013-02-07 12:03:00,
2013-02-07 07:08:00,25.4,21.0,30.19,SE,136,3.0,6.0,83,0.00,,,0.00,WeatherCatV1.10B1784,2013-02-07 12:08:00,
2013-02-07 07:13:00,25.5,20.8,30.18,SE,134,3.0,7.0,82,0.00,,,0.00,WeatherCatV1.10B1784,2013-02-07 12:13:00,
2013-02-07 07:18:00,25.6,20.9,30.18,SE,132,6.0,9.0,82,0.00,,,0.00,WeatherCatV1.10B1784,2013-02-07 12:18:00,
2013-02-07 07:23:00,25.7,21.0,30.18,SSE,152,3.0,6.0,82,0.00,,,0.00,WeatherCatV1.10B1784,2013-02-07 12:23:00,
2013-02-07 07:28:00,25.7,21.0,30.18,SSE,150,3.0,8.0,82,0.00,,,0.00,WeatherCatV1.10B1784,2013-02-07 12:28:00,
2013-02-07 07:33:00,25.8,20.8,30.18,ESE,117,3.0,8.0,81,0.00,,,0.00,WeatherCatV1.10B1784,2013-02-07 12:33:00,
2013-02-07 07:38:00,25.8,20.8,30.18,SSE,150,5.0,6.0,81,0.00,,,0.00,WeatherCatV1.10B1784,2013-02-07 12:38:00,
2013-02-07 07:43:00,25.9,20.9,30.18,SE,143,5.0,7.0,81,0.00,,,0.00,WeatherCatV1.10B1784,2013-02-07 12:43:00,
2013-02-07 07:48:00,25.9,20.9,30.18,SE,142,6.0,7.0,81,0.00,,,0.00,WeatherCatV1.10B1784,2013-02-07 12:48:00,
2013-02-07 07:53:00,26.0,21.3,30.18,SSE,148,4.0,10.0,82,0.00,,,0.00,WeatherCatV1.10B1784,2013-02-07 12:53:00,
2013-02-07 07:58:00,26.0,21.3,30.18,SE,126,3.0,7.0,82,0.00,,,0.00,WeatherCatV1.10B1784,2013-02-07 12:58:00,
2013-02-07 08:03:00,26.1,21.4,30.18,SE,146,4.0,6.0,82,0.00,,,0.00,WeatherCatV1.10B1784,2013-02-07 13:03:00,
2013-02-07 08:08:00,26.1,21.7,30.18,SSE,164,3.0,4.0,83,0.00,,,0.00,WeatherCatV1.10B1784,2013-02-07 13:08:00,
2013-02-07 08:13:00,26.2,21.8,30.17,SE,142,6.0,8.0,83,0.00,,,0.00,WeatherCatV1.10B1784,2013-02-07 13:13:00,
2013-02-07 08:18:00,26.2,21.8,30.17,SE,143,5.0,5.0,83,0.00,,,0.00,WeatherCatV1.10B1784,2013-02-07 13:18:00,
2013-02-07 08:23:00,26.3,21.9,30.17,SE,134,3.0,7.0,83,0.00,,,0.00,WeatherCatV1.10B1784,2013-02-07 13:23:00,
2013-02-07 08:28:00,26.3,21.9,30.17,SE,144,5.0,11.0,83,0.00,,,0.00,WeatherCatV1.10B1784,2013-02-07 13:28:00,
2013-02-07 08:33:00,26.3,22.1,30.17,SSE,159,5.0,9.0,84,0.00,,,0.00,WeatherCatV1.10B1784,2013-02-07 13:33:00,
2013-02-07 08:38:00,26.3,22.1,30.17,ESE,120,7.0,9.0,84,0.00,,,0.00,WeatherCatV1.10B1784,2013-02-07 13:38:00,
2013-02-07 08:43:00,26.4,22.2,30.17,South,175,4.0,10.0,84,0.00,,,0.00,WeatherCatV1.10B1784,2013-02-07 13:43:00,
2013-02-07 08:48:00,26.5,22.3,30.17,SSE,157,5.0,7.0,84,0.00,,,0.00,WeatherCatV1.10B1784,2013-02-07 13:48:00,
2013-02-07 08:53:00,26.6,22.7,30.17,SE,127,8.0,9.0,85,0.00,,,0.00,WeatherCatV1.10B1784,2013-02-07 13:53:00,
2013-02-07 08:58:00,26.7,22.5,30.17,SSE,147,3.0,6.0,84,0.00,,,0.00,WeatherCatV1.10B1784,2013-02-07 13:58:00,
2013-02-07 09:03:00,26.8,22.6,30.17,SSE,163,2.0,5.0,84,0.00,,,0.00,WeatherCatV1.10B1784,2013-02-07 14:03:00,
2013-02-07 09:08:00,27.0,22.8,30.17,ESE,112,4.0,5.0,84,0.00,,,0.00,WeatherCatV1.10B1784,2013-02-07 14:08:00,
2013-02-07 09:13:00,27.1,22.9,30.17,ESE,113,3.0,7.0,84,0.00,,,0.00,WeatherCatV1.10B1784,2013-02-07 14:13:00,
2013-02-07 09:18:00,27.3,23.1,30.17,SE,134,2.0,4.0,84,0.00,,,0.00,WeatherCatV1.10B1784,2013-02-07 14:18:00,
2013-02-07 09:23:00,27.4,22.9,30.16,ESE,104,4.0,5.0,83,0.00,,,0.00,WeatherCatV1.10B1784,2013-02-07 14:23:00,
2013-02-07 09:28:00,27.6,23.1,30.16,SE,134,0.0,5.0,83,0.00,,,0.00,WeatherCatV1.10B1784,2013-02-07 14:28:00,
2013-02-07 09:33:00,27.9,23.4,30.16,South,169,3.0,7.0,83,0.00,,,0.00,WeatherCatV1.10B1784,2013-02-07 14:33:00,
2013-02-07 09:38:00,28.1,23.6,30.16,SE,126,7.0,7.0,83,0.00,,,0.00,WeatherCatV1.10B1784,2013-02-07 14:38:00,
2013-02-07 09:43:00,28.2,23.7,30.15,SE,131,5.0,6.0,83,0.00,,,0.00,WeatherCatV1.10B1784,2013-02-07 14:43:00,
2013-02-07 09:48:00,28.3,23.8,30.15,SE,134,5.0,8.0,83,0.00,,,0.00,WeatherCatV1.10B1784,2013-02-07 14:48:00,
2013-02-07 09:53:00,28.4,23.6,30.15,SSE,165,4.0,8.0,82,0.00,,,0.00,WeatherCatV1.10B1784,2013-02-07 14:53:00,
2013-02-07 09:58:00,28.5,23.7,30.15,SE,146,7.0,8.0,82,0.00,,,0.00,WeatherCatV1.10B1784,2013-02-07 14:58:00,
2013-02-07 10:03:00,28.6,23.8,30.15,SE,139,3.0,7.0,82,0.00,,,0.00,WeatherCatV1.10B1784,2013-02-07 15:03:00,
2013-02-07 10:08:00,28.7,23.6,30.15,SSE,160,5.0,8.0,81,0.00,,,0.00,WeatherCatV1.10B1784,2013-02-07 15:08:00,
2013-02-07 10:13:00,28.8,24.0,30.15,SSE,159,4.0,7.0,82,0.00,,,0.00,WeatherCatV1.10B1784,2013-02-07 15:13:00,
2013-02-07 10:18:00,28.9,23.8,30.14,SE,126,7.0,8.0,81,0.00,,,0.00,WeatherCatV1.10B1784,2013-02-07 15:18:00,
2013-02-07 10:23:00,29.0,23.9,30.14,SSE,150,5.0,9.0,81,0.00,,,0.00,WeatherCatV1.10B1784,2013-02-07 15:23:00,
2013-02-07 10:28:00,29.3,24.2,30.14,SSE,151,4.0,8.0,81,0.00,,,0.00,WeatherCatV1.10B1784,2013-02-07 15:28:00,
2013-02-07 10:33:00,29.4,24.3,30.14,SE,146,4.0,6.0,81,0.00,,,0.00,WeatherCatV1.10B1784,2013-02-07 15:33:00,
2013-02-07 10:38:00,29.7,24.6,30.14,ESE,121,4.0,5.0,81,0.00,,,0.00,WeatherCatV1.10B1784,2013-02-07 15:38:00,
2013-02-07 10:43:00,30.0,24.6,30.14,SSE,155,7.0,7.0,80,0.00,,,0.00,WeatherCatV1.10B1784,2013-02-07 15:43:00,
2013-02-07 10:48:00,30.1,24.7,30.14,SE,130,4.0,9.0,80,0.00,,,0.00,WeatherCatV1.10B1784,2013-02-07 15:48:00,
2013-02-07 10:53:00,30.2,24.8,30.13,SSE,159,5.0,7.0,80,0.00,,,0.00,WeatherCatV1.10B1784,2013-02-07 15:53:00,
2013-02-07 10:58:00,30.5,24.8,30.13,SE,138,5.0,9.0,79,0.00,,,0.00,WeatherCatV1.10B1784,2013-02-07 15:58:00,
2013-02-07 11:03:00,30.8,25.1,30.13,SSE,152,5.0,6.0,79,0.00,,,0.00,WeatherCatV1.10B1784,2013-02-07 16:03:00,
2013-02-07 11:08:00,31.3,25.3,30.14,SSE,148,5.0,8.0,78,0.00,,,0.00,WeatherCatV1.10B1784,2013-02-07 16:08:00,
2013-02-07 11:13:00,31.7,25.3,30.14,SE,143,7.0,10.0,77,0.00,,,0.00,WeatherCatV1.10B1784,2013-02-07 16:13:00,
2013-02-07 11:18:00,31.7,25.6,30.13,SSE,160,6.0,7.0,78,0.00,,,0.00,WeatherCatV1.10B1784,2013-02-07 16:18:00,
2013-02-07 11:23:00,32.0,25.6,30.14,SE,128,4.0,8.0,77,0.00,,,0.00,WeatherCatV1.10B1784,2013-02-07 16:23:00,
2013-02-07 11:28:00,32.3,25.9,30.14,SE,140,5.0,9.0,77,0.00,,,0.00,WeatherCatV1.10B1784,2013-02-07 16:28:00,
2013-02-07 11:33:00,32.3,25.9,30.13,SE,132,5.0,8.0,77,0.00,,,0.00,WeatherCatV1.10B1784,2013-02-07 16:33:00,
2013-02-07 11:38:00,32.6,26.2,30.13,SSE,155,4.0,9.0,77,0.00,,,0.00,WeatherCatV1.10B1784,2013-02-07 16:38:00,
2013-02-07 11:43:00,33.1,26.7,30.12,ESE,116,4.0,7.0,77,0.00,,,0.00,WeatherCatV1.10B1784,2013-02-07 16:43:00,
2013-02-07 11:48:00,32.9,26.2,30.12,ESE,112,3.0,8.0,76,0.00,,,0.00,WeatherCatV1.10B1784,2013-02-07 16:48:00,
2013-02-07 11:53:00,33.0,26.6,30.12,ESE,110,4.0,5.0,77,0.00,,,0.00,WeatherCatV1.10B1784,2013-02-07 16:53:00,
2013-02-07 11:58:00,33.3,26.6,30.12,SSE,165,3.0,6.0,76,0.00,,,0.00,WeatherCatV1.10B1784,2013-02-07 16:58:00,
2013-02-07 12:03:00,33.6,26.9,30.12,ESE,113,3.0,7.0,76,0.00,,,0.00,WeatherCatV1.10B1784,2013-02-07 17:03:00,
2013-02-07 12:08:00,33.8,26.7,30.11,SSE,150,4.0,6.0,75,0.00,,,0.00,WeatherCatV1.10B1784,2013-02-07 17:08:00,
2013-02-07 12:13:00,33.9,26.8,30.11,ESE,107,5.0,10.0,75,0.00,,,0.00,WeatherCatV1.10B1784,2013-02-07 17:13:00,
2013-02-07 12:18:00,34.0,26.9,30.10,SSE,163,3.0,6.0,75,0.00,,,0.00,WeatherCatV1.10B1784,2013-02-07 17:18:00,
2013-02-07 12:23:00,34.3,27.5,30.10,SE,125,3.0,9.0,76,0.00,,,0.00,WeatherCatV1.10B1784,2013-02-07 17:23:00,
2013-02-07 12:28:00,34.9,27.8,30.09,SE,143,4.0,8.0,75,0.00,,,0.00,WeatherCatV1.10B1784,2013-02-07 17:28:00,
2013-02-07 12:33:00,35.0,27.6,30.09,SSE,147,5.0,9.0,74,0.00,,,0.00,WeatherCatV1.10B1784,2013-02-07 17:33:00,
2013-02-07 12:38:00,34.7,27.3,30.09,ESE,105,4.0,10.0,74,0.00,,,0.00,WeatherCatV1.10B1784,2013-02-07 17:38:00,
2013-02-07 12:43:00,34.5,27.4,30.08,East,98,7.0,9.0,75,0.00,,,0.00,WeatherCatV1.10B1784,2013-02-07 17:43:00,
2013-02-07 12:48:00,34.3,27.2,30.08,East,91,5.0,9.0,75,0.00,,,0.00,WeatherCatV1.10B1784,2013-02-07 17:48:00,
2013-02-07 12:53:00,34.6,27.5,30.07,SE,132,3.0,8.0,75,0.00,,,0.00,WeatherCatV1.10B1784,2013-02-07 17:53:00,
2013-02-07 12:58:00,34.7,27.6,30.07,ESE,123,7.0,7.0,75,0.00,,,0.00,WeatherCatV1.10B1784,2013-02-07 17:58:00,
2013-02-07 13:03:00,34.6,27.8,30.07,East,88,6.0,8.0,76,0.00,,,0.00,WeatherCatV1.10B1784,2013-02-07 18:03:00,
2013-02-07 13:08:00,34.5,27.7,30.07,East,80,7.0,9.0,76,0.00,,,0.00,WeatherCatV1.10B1784,2013-02-07 18:08:00,
2013-02-07 13:13:00,34.8,27.7,30.06,ESE,110,5.0,10.0,75,0.00,,,0.00,WeatherCatV1.10B1784,2013-02-07 18:13:00,
2013-02-07 13:18:00,35.0,27.9,30.06,East,95,3.0,8.0,75,0.00,,,0.00,WeatherCatV1.10B1784,2013-02-07 18:18:00,
2013-02-07 13:23:00,35.5,28.0,30.07,ESE,105,4.0,7.0,74,0.00,,,0.00,WeatherCatV1.10B1784,2013-02-07 18:23:00,
2013-02-07 13:28:00,35.6,28.1,30.07,SE,134,3.0,7.0,74,0.00,,,0.00,WeatherCatV1.10B1784,2013-02-07 18:28:00,
2013-02-07 13:33:00,35.7,28.2,30.06,SE,141,5.0,9.0,74,0.00,,,0.00,WeatherCatV1.10B1784,2013-02-07 18:33:00,
2013-02-07 13:38:00,35.3,27.9,30.06,East,93,7.0,7.0,74,0.00,,,0.00,WeatherCatV1.10B1784,2013-02-07 18:38:00,
2013-02-07 13:43:00,35.2,28.1,30.06,ESE,107,7.0,8.0,75,0.00,,,0.00,WeatherCatV1.10B1784,2013-02-07 18:43:00,
2013-02-07 13:48:00,35.5,28.4,30.05,SE,126,2.0,5.0,75,0.00,,,0.00,WeatherCatV1.10B1784,2013-02-07 18:48:00,
2013-02-07 13:53:00,35.9,28.4,30.05,ESE,117,5.0,8.0,74,0.00,,,0.00,WeatherCatV1.10B1784,2013-02-07 18:53:00,
2013-02-07 13:58:00,35.9,28.4,30.05,SE,127,1.0,7.0,74,0.00,,,0.00,WeatherCatV1.10B1784,2013-02-07 18:58:00,
2013-02-07 14:03:00,35.8,28.7,30.04,ESE,114,9.0,9.0,75,0.00,,,0.00,WeatherCatV1.10B1784,2013-02-07 19:03:00,
2013-02-07 14:08:00,35.6,28.5,30.03,East,99,6.0,8.0,75,0.00,,,0.00,WeatherCatV1.10B1784,2013-02-07 19:08:00,
2013-02-07 14:13:00,35.7,28.6,30.03,ESE,121,7.0,9.0,75,0.00,,,0.00,WeatherCatV1.10B1784,2013-02-07 19:13:00,
2013-02-07 14:18:00,35.9,28.4,30.02,ESE,122,3.0,7.0,74,0.00,,,0.00,WeatherCatV1.10B1784,2013-02-07 19:18:00,
2013-02-07 14:23:00,36.3,28.8,30.02,East,101,8.0,12.0,74,0.00,,,0.00,WeatherCatV1.10B1784,2013-02-07 19:23:00,
2013-02-07 14:28:00,36.5,29.0,30.02,SE,144,9.0,9.0,74,0.00,,,0.00,WeatherCatV1.10B1784,2013-02-07 19:28:00,
2013-02-07 14:33:00,36.8,29.3,30.01,East,98,6.0,9.0,74,0.00,,,0.00,WeatherCatV1.10B1784,2013-02-07 19:33:00,
2013-02-07 14:38:00,37.1,29.3,30.01,ESE,107,7.0,9.0,73,0.00,,,0.00,WeatherCatV1.10B1784,2013-02-07 19:38:00,
2013-02-07 14:45:00,37.3,29.5,30.01,ESE,105,7.0,9.0,73,0.00,,,0.00,WeatherCatV1.10B1784,2013-02-07 19:45:00,
2013-02-07 14:50:00,37.6,29.4,30.00,ESE,104,7.0,8.0,72,0.00,,,0.00,WeatherCatV1.10B1784,2013-02-07 19:50:00,
2013-02-07 14:55:00,38.0,29.8,30.00,ESE,102,7.0,9.0,72,0.00,,,0.00,WeatherCatV1.10B1784,2013-02-07 19:55:00,
2013-02-07 15:00:00,37.7,29.5,29.99,East,97,9.0,13.0,72,0.00,,,0.00,WeatherCatV1.10B1784,2013-02-07 20:00:00,
2013-02-07 15:05:00,37.7,29.5,29.99,ESE,109,4.0,10.0,72,0.00,,,0.00,WeatherCatV1.10B1784,2013-02-07 20:05:00,
2013-02-07 15:10:00,38.0,29.8,29.99,SE,131,9.0,12.0,72,0.00,,,0.00,WeatherCatV1.10B1784,2013-02-07 20:10:00,
2013-02-07 15:15:00,38.0,29.4,29.99,East,97,6.0,12.0,71,0.00,,,0.00,WeatherCatV1.10B1784,2013-02-07 20:15:00,
2013-02-07 15:20:00,38.0,29.8,29.98,ESE,111,12.0,12.0,72,0.00,,,0.00,WeatherCatV1.10B1784,2013-02-07 20:20:00,
2013-02-07 15:25:00,37.8,29.6,29.98,ESE,114,14.0,14.0,72,0.00,,,0.00,WeatherCatV1.10B1784,2013-02-07 20:25:00,
2013-02-07 15:30:00,37.7,29.8,29.98,ESE,103,8.0,11.0,73,0.00,,,0.00,WeatherCatV1.10B1784,2013-02-07 20:30:00,
2013-02-07 15:35:00,37.7,29.8,29.98,SE,132,6.0,12.0,73,0.00,,,0.00,WeatherCatV1.10B1784,2013-02-07 20:35:00,
2013-02-07 15:40:00,37.4,29.9,29.98,East,100,5.0,11.0,74,0.00,,,0.00,WeatherCatV1.10B1784,2013-02-07 20:40:00,
2013-02-07 15:45:00,37.5,30.0,29.98,ESE,117,5.0,10.0,74,0.00,,,0.00,WeatherCatV1.10B1784,2013-02-07 20:45:00,
2013-02-07 15:50:00,37.8,30.3,29.98,ESE,114,8.0,10.0,74,0.00,,,0.00,WeatherCatV1.10B1784,2013-02-07 20:50:00,
2013-02-07 15:55:00,37.5,30.0,29.97,ESE,115,8.0,9.0,74,0.00,,,0.00,WeatherCatV1.10B1784,2013-02-07 20:55:00,
2013-02-07 16:00:00,37.4,29.9,29.97,ESE,105,5.0,12.0,74,0.00,,,0.00,WeatherCatV1.10B1784,2013-02-07 21:00:00,
2013-02-07 16:05:00,37.4,29.9,29.97,ESE,103,5.0,13.0,74,0.00,,,0.00,WeatherCatV1.10B1784,2013-02-07 21:05:00,
2013-02-07 16:10:00,37.5,30.0,29.97,ESE,104,5.0,7.0,74,0.00,,,0.00,WeatherCatV1.10B1784,2013-02-07 21:10:00,
2013-02-07 16:15:00,37.5,30.0,29.96,SSE,150,5.0,11.0,74,0.00,,,0.00,WeatherCatV1.10B1784,2013-02-07 21:15:00,
2013-02-07 16:20:00,37.1,29.6,29.96,SE,132,4.0,10.0,74,0.00,,,0.00,WeatherCatV1.10B1784,2013-02-07 21:20:00,
2013-02-07 16:25:00,36.8,29.6,29.96,ESE,113,8.0,8.0,75,0.00,,,0.00,WeatherCatV1.10B1784,2013-02-07 21:25:00,
2013-02-07 16:30:00,36.6,29.8,29.96,ESE,113,9.0,10.0,76,0.00,,,0.00,WeatherCatV1.10B1784,2013-02-07 21:30:00,
2013-02-07 16:35:00,36.1,29.0,29.96,ESE,105,8.0,11.0,75,0.00,,,0.00,WeatherCatV1.10B1784,2013-02-07 21:35:00,
2013-02-07 16:40:00,35.7,28.9,29.95,SE,133,7.0,10.0,76,0.00,,,0.00,WeatherCatV1.10B1784,2013-02-07 21:40:00,
2013-02-07 16:45:00,35.5,29.0,29.95,ESE,116,5.0,10.0,77,0.00,,,0.00,WeatherCatV1.10B1784,2013-02-07 21:45:00,
2013-02-07 16:50:00,35.3,28.8,29.95,SE,124,8.0,10.0,77,0.00,,,0.00,WeatherCatV1.10B1784,2013-02-07 21:50:00,
2013-02-07 16:55:00,35.2,28.7,29.95,SE,128,4.0,10.0,77,0.00,,,0.00,WeatherCatV1.10B1784,2013-02-07 21:55:00,
2013-02-07 17:00:00,35.1,28.9,29.95,ESE,111,7.0,7.0,78,0.00,,,0.00,WeatherCatV1.10B1784,2013-02-07 22:00:00,
2013-02-07 17:05:00,35.0,28.8,29.95,SE,131,3.0,7.0,78,0.00,,,0.00,WeatherCatV1.10B1784,2013-02-07 22:05:00,
2013-02-07 17:10:00,34.9,28.8,29.95,SE,125,3.0,8.0,78,0.00,,,0.00,WeatherCatV1.10B1784,2013-02-07 22:10:00,
2013-02-07 17:15:00,34.8,28.3,29.95,ESE,109,3.0,7.0,77,0.00,,,0.00,WeatherCatV1.10B1784,2013-02-07 22:15:00,
2013-02-07 17:20:00,34.8,28.7,29.95,SE,128,5.0,8.0,78,0.00,,,0.00,WeatherCatV1.10B1784,2013-02-07 22:20:00,
2013-02-07 17:25:00,34.7,28.6,29.95,SE,144,5.0,6.0,78,0.00,,,0.00,WeatherCatV1.10B1784,2013-02-07 22:25:00,
2013-02-07 17:30:00,34.7,28.6,29.95,SE,128,8.0,10.0,78,0.00,,,0.00,WeatherCatV1.10B1784,2013-02-07 22:30:00,
2013-02-07 17:35:00,34.6,28.5,29.95,ESE,113,7.0,10.0,78,0.00,,,0.00,WeatherCatV1.10B1784,2013-02-07 22:35:00,
2013-02-07 17:40:00,34.5,28.4,29.95,SE,132,3.0,6.0,78,0.00,,,0.00,WeatherCatV1.10B1784,2013-02-07 22:40:00,
2013-02-07 17:45:00,34.4,28.6,29.95,ESE,123,3.0,8.0,79,0.00,,,0.00,WeatherCatV1.10B1784,2013-02-07 22:45:00,
2013-02-07 17:50:00,34.3,28.5,29.94,SE,124,3.0,8.0,79,0.00,,,0.00,WeatherCatV1.10B1784,2013-02-07 22:50:00,
2013-02-07 17:55:00,34.3,28.5,29.94,ESE,121,3.0,9.0,79,0.00,,,0.00,WeatherCatV1.10B1784,2013-02-07 22:55:00,
2013-02-07 18:00:00,34.2,28.4,29.94,SSE,149,6.0,10.0,79,0.00,,,0.00,WeatherCatV1.10B1784,2013-02-07 23:00:00,
2013-02-07 18:05:00,34.1,28.3,29.94,ESE,121,7.0,10.0,79,0.00,,,0.00,WeatherCatV1.10B1784,2013-02-07 23:05:00,
2013-02-07 18:10:00,34.1,28.3,29.94,ESE,107,9.0,12.0,79,0.00,,,0.00,WeatherCatV1.10B1784,2013-02-07 23:10:00,
2013-02-07 18:15:00,34.0,28.2,29.94,SE,140,3.0,10.0,79,0.00,,,0.00,WeatherCatV1.10B1784,2013-02-07 23:15:00,
2013-02-07 18:20:00,33.9,28.1,29.94,ESE,117,5.0,11.0,79,0.00,,,0.00,WeatherCatV1.10B1784,2013-02-07 23:20:00,
2013-02-07 18:25:00,33.8,28.3,29.93,SE,125,3.0,8.0,80,0.00,,,0.00,WeatherCatV1.10B1784,2013-02-07 23:25:00,
2013-02-07 18:30:00,33.8,28.3,29.93,ESE,102,3.0,10.0,80,0.00,,,0.00,WeatherCatV1.10B1784,2013-02-07 23:30:00,
2013-02-07 18:35:00,33.7,28.2,29.93,ESE,109,4.0,11.0,80,0.00,,,0.00,WeatherCatV1.10B1784,2013-02-07 23:35:00,
2013-02-07 18:40:00,33.5,28.0,29.93,SE,127,9.0,13.0,80,0.00,,,0.00,WeatherCatV1.10B1784,2013-02-07 23:40:00,
2013-02-07 18:45:00,33.3,28.1,29.93,ESE,113,7.0,14.0,81,0.00,,,0.00,WeatherCatV1.10B1784,2013-02-07 23:45:00,
2013-02-07 18:50:00,33.1,27.9,29.93,East,101,7.0,15.0,81,0.00,,,0.00,WeatherCatV1.10B1784,2013-02-07 23:50:00,
2013-02-07 18:55:00,32.9,28.0,29.93,ESE,112,7.0,10.0,82,0.00,,,0.00,WeatherCatV1.10B1784,2013-02-07 23:55:00,
2013-02-07 19:00:00,32.7,27.8,29.93,East,98,10.0,13.0,82,0.00,,,0.00,WeatherCatV1.10B1784,2013-02-08 00:00:00,
2013-02-07 19:05:00,32.5,27.6,29.92,ESE,119,7.0,11.0,82,0.00,,,0.00,WeatherCatV1.10B1784,2013-02-08 00:05:00,
2013-02-07 19:10:00,32.3,27.7,29.92,ESE,103,4.0,8.0,83,0.00,,,0.00,WeatherCatV1.10B1784,2013-02-08 00:10:00,
2013-02-07 19:15:00,32.0,27.4,29.91,East,90,8.0,13.0,83,0.00,,,0.00,WeatherCatV1.10B1784,2013-02-08 00:15:00,
2013-02-07 19:20:00,31.9,27.3,29.91,East,95,11.0,13.0,83,0.00,,,0.00,WeatherCatV1.10B1784,2013-02-08 00:20:00,
2013-02-07 19:25:00,31.7,27.1,29.91,ESE,111,7.0,11.0,83,0.00,,,0.00,WeatherCatV1.10B1784,2013-02-08 00:25:00,
2013-02-07 19:30:00,31.6,27.0,29.91,East,84,10.0,12.0,83,0.00,,,0.00,WeatherCatV1.10B1784,2013-02-08 00:30:00,
2013-02-07 19:35:00,31.5,26.7,29.91,ESE,119,11.0,13.0,82,0.00,,,0.00,WeatherCatV1.10B1784,2013-02-08 00:35:00,
2013-02-07 19:40:00,31.3,26.2,29.92,East,94,8.0,16.0,81,0.00,,,0.00,WeatherCatV1.10B1784,2013-02-08 00:40:00,
2013-02-07 19:45:00,31.2,26.1,29.91,ESE,120,13.0,16.0,81,0.00,,,0.00,WeatherCatV1.10B1784,2013-02-08 00:45:00,
2013-02-07 19:50:00,31.1,26.0,29.90,East,80,11.0,16.0,81,0.00,,,0.00,WeatherCatV1.10B1784,2013-02-08 00:50:00,
2013-02-07 19:55:00,31.0,25.9,29.91,ESE,102,11.0,11.0,81,0.00,,,0.00,WeatherCatV1.10B1784,2013-02-08 00:55:00,
2013-02-07 20:00:00,30.9,25.8,29.90,ESE,119,7.0,13.0,81,0.00,,,0.00,WeatherCatV1.10B1784,2013-02-08 01:00:00,
2013-02-07 20:05:00,30.8,25.7,29.91,East,99,11.0,11.0,81,0.00,,,0.00,WeatherCatV1.10B1784,2013-02-08 01:05:00,
2013-02-07 20:10:00,30.8,25.7,29.90,East,88,10.0,16.0,81,0.00,,,0.00,WeatherCatV1.10B1784,2013-02-08 01:10:00,
2013-02-07 20:15:00,30.7,25.6,29.90,SE,144,11.0,13.0,81,0.00,,,0.00,WeatherCatV1.10B1784,2013-02-08 01:15:00,
2013-02-07 20:20:00,30.7,25.6,29.89,ESE,115,7.0,18.0,81,0.00,,,0.00,WeatherCatV1.10B1784,2013-02-08 01:20:00,
2013-02-07 20:25:00,30.7,25.6,29.89,ESE,106,7.0,15.0,81,0.00,,,0.00,WeatherCatV1.10B1784,2013-02-08 01:25:00,
2013-02-07 20:30:00,30.7,25.9,29.89,East,84,11.0,15.0,82,0.00,,,0.00,WeatherCatV1.10B1784,2013-02-08 01:30:00,
2013-02-07 20:35:00,30.7,25.9,29.89,ESE,105,7.0,9.0,82,0.00,,,0.00,WeatherCatV1.10B1784,2013-02-08 01:35:00,
2013-02-07 20:40:00,30.6,25.8,29.89,ESE,103,5.0,8.0,82,0.00,,,0.00,WeatherCatV1.10B1784,2013-02-08 01:40:00,
2013-02-07 20:45:00,30.7,25.9,29.89,ENE,64,7.0,9.0,82,0.00,,,0.00,WeatherCatV1.10B1784,2013-02-08 01:45:00,
2013-02-07 20:50:00,30.7,25.9,29.89,East,84,10.0,14.0,82,0.00,,,0.00,WeatherCatV1.10B1784,2013-02-08 01:50:00,
2013-02-07 20:55:00,30.7,25.9,29.88,East,97,5.0,7.0,82,0.00,,,0.00,WeatherCatV1.10B1784,2013-02-08 01:55:00,
2013-02-07 21:00:00,30.7,25.9,29.88,ENE,73,4.0,7.0,82,0.00,,,0.00,WeatherCatV1.10B1784,2013-02-08 02:00:00,
2013-02-07 21:05:00,30.7,26.2,29.87,East,86,9.0,16.0,83,0.00,,,0.00,WeatherCatV1.10B1784,2013-02-08 02:05:00,
2013-02-07 21:10:00,30.7,26.2,29.87,NE,52,8.0,14.0,83,0.00,,,0.00,WeatherCatV1.10B1784,2013-02-08 02:10:00,
2013-02-07 21:15:00,30.7,26.2,29.87,East,88,7.0,10.0,83,0.00,,,0.00,WeatherCatV1.10B1784,2013-02-08 02:15:00,
2013-02-07 21:20:00,30.7,26.2,29.86,East,86,7.0,10.0,83,0.00,,,0.00,WeatherCatV1.10B1784,2013-02-08 02:20:00,
2013-02-07 21:25:00,30.6,26.4,29.86,ENE,78,4.0,10.0,84,0.00,,,0.00,WeatherCatV1.10B1784,2013-02-08 02:25:00,
2013-02-07 21:30:00,30.6,26.4,29.87,East,92,6.0,13.0,84,0.00,,,0.00,WeatherCatV1.10B1784,2013-02-08 02:30:00,
2013-02-07 21:35:00,30.6,26.4,29.87,ESE,109,4.0,7.0,84,0.00,,,0.00,WeatherCatV1.10B1784,2013-02-08 02:35:00,
2013-02-07 21:40:00,30.6,26.4,29.88,ESE,107,7.0,10.0,84,0.00,,,0.00,WeatherCatV1.10B1784,2013-02-08 02:40:00,
2013-02-07 21:45:00,30.7,26.2,29.88,ENE,76,4.0,10.0,83,0.00,,,0.00,WeatherCatV1.10B1784,2013-02-08 02:45:00,
2013-02-07 21:50:00,30.7,26.4,29.88,East,82,6.0,8.0,84,0.00,,,0.00,WeatherCatV1.10B1784,2013-02-08 02:50:00,
2013-02-07 21:55:00,30.7,26.4,29.88,ESE,107,7.0,9.0,84,0.00,,,0.00,WeatherCatV1.10B1784,2013-02-08 02:55:00,
2013-02-07 22:00:00,30.7,26.2,29.88,ESE,102,4.0,8.0,83,0.00,,,0.00,WeatherCatV1.10B1784,2013-02-08 03:00:00,
2013-02-07 22:05:00,30.6,26.1,29.87,East,91,6.0,9.0,83,0.00,,,0.00,WeatherCatV1.10B1784,2013-02-08 03:05:00,
2013-02-07 22:10:00,30.7,26.2,29.87,ESE,103,4.0,8.0,83,0.00,,,0.00,WeatherCatV1.10B1784,2013-02-08 03:10:00,
2013-02-07 22:15:00,30.7,26.2,29.86,East,96,7.0,10.0,83,0.00,,,0.00,WeatherCatV1.10B1784,2013-02-08 03:15:00,
2013-02-07 22:20:00,30.6,26.4,29.85,ENE,63,4.0,8.0,84,0.00,,,0.00,WeatherCatV1.10B1784,2013-02-08 03:20:00,
2013-02-07 22:25:00,30.7,26.4,29.85,East,84,7.0,15.0,84,0.00,,,0.00,WeatherCatV1.10B1784,2013-02-08 03:25:00,
2013-02-07 22:30:00,30.7,26.4,29.85,ENE,70,5.0,7.0,84,0.00,,,0.00,WeatherCatV1.10B1784,2013-02-08 03:30:00,
2013-02-07 22:35:00,30.6,26.1,29.85,East,80,7.0,11.0,83,0.00,,,0.00,WeatherCatV1.10B1784,2013-02-08 03:35:00,
2013-02-07 22:40:00,30.6,26.4,29.85,East,81,7.0,10.0,84,0.00,,,0.00,WeatherCatV1.10B1784,2013-02-08 03:40:00,
2013-02-07 22:45:00,30.6,26.4,29.85,East,85,7.0,10.0,84,0.00,,,0.00,WeatherCatV1.10B1784,2013-02-08 03:45:00,
2013-02-07 22:50:00,30.6,26.4,29.85,ENE,68,4.0,9.0,84,0.00,,,0.00,WeatherCatV1.10B1784,2013-02-08 03:50:00,
2013-02-07 22:55:00,30.5,26.5,29.84,ENE,65,4.0,9.0,85,0.00,,,0.00,WeatherCatV1.10B1784,2013-02-08 03:55:00,
2013-02-07 23:00:00,30.3,26.6,29.84,ENE,71,5.0,6.0,86,0.00,,,0.00,WeatherCatV1.10B1784,2013-02-08 04:00:00,
2013-02-07 23:05:00,30.3,26.9,29.84,ENE,57,10.0,11.0,87,0.00,,,0.01,WeatherCatV1.10B1784,2013-02-08 04:05:00,
2013-02-07 23:10:00,30.3,26.9,29.83,ENE,64,5.0,9.0,87,0.00,,,0.01,WeatherCatV1.10B1784,2013-02-08 04:10:00,
2013-02-07 23:15:00,30.2,27.1,29.83,ENE,78,4.0,8.0,88,0.00,,,0.01,WeatherCatV1.10B1784,2013-02-08 04:15:00,
2013-02-07 23:20:00,30.2,27.1,29.82,East,84,11.0,13.0,88,0.00,,,0.01,WeatherCatV1.10B1784,2013-02-08 04:20:00,
2013-02-07 23:25:00,30.1,27.0,29.82,ENE,78,10.0,11.0,88,0.00,,,0.01,WeatherCatV1.10B1784,2013-02-08 04:25:00,
2013-02-07 23:30:00,30.1,27.3,29.82,East,95,7.0,8.0,89,0.00,,,0.02,WeatherCatV1.10B1784,2013-02-08 04:30:00,
2013-02-07 23:35:00,30.1,27.3,29.82,East,87,7.0,12.0,89,0.00,,,0.02,WeatherCatV1.10B1784,2013-02-08 04:35:00,
2013-02-07 23:40:00,30.1,27.3,29.81,ENE,75,10.0,10.0,89,0.05,,,0.03,WeatherCatV1.10B1784,2013-02-08 04:40:00,
2013-02-07 23:45:00,30.2,27.6,29.81,ENE,71,7.0,9.0,90,0.05,,,0.03,WeatherCatV1.10B1784,2013-02-08 04:45:00,
2013-02-07 23:50:00,30.2,27.6,29.81,East,97,8.0,10.0,90,0.05,,,0.03,WeatherCatV1.10B1784,2013-02-08 04:50:00,
2013-02-07 23:55:00,30.2,27.6,29.80,East,82,9.0,10.0,90,0.05,,,0.04,WeatherCatV1.10B1784,2013-02-08 04:55:00,